Location: Bergnershof
(48.9468°N, 10.9431°E)
Time: 11:48:16
(UTC+00:00)

Cosmos 2360 Rocket - Pass Details

Date: 03 March 2021
Orbit: 832 x 846 km, 71.0° (Epoch: 13 April)

Event Time Altitude Azimuth Distance (km) Brightness Sun altitude
Rises 18:37:29 0° 203° (SSW) 3,377 5.5 -16.3°
Reaches altitude 10° 18:39:55 10° 202° (SSW) 2,448 4.8 -16.7°
Maximum altitude 18:45:32 82° 117° (ESE) 855 2.1 -17.6°
Drops below altitude 10° 18:51:14 10° 30° (NNE) 2,474 4.4 -18.5°
Sets 18:53:41 0° 29° (NNE) 3,414 5.2 -18.9°
